SCP
0 0 0 0 0 0 0 0 0 0 0 0 1 2 2 3 1 1 0 1 1 1 1 1 0 0 0 0 0 0 0 0 0 0 0 0 0 0 0 0 0 0 0
0 0 0 0 0 0 0 0 0 0 0 0 1 2 2 1 1 1 1 1 1 1 1 1 0 0 0 0 0 0 0 0 0 0 0 0 0 0 0 0 0 0 0
0 0 0 0 0 0 0 0 0 0 0 0 1 2 1 1 0 0 0 0 0 1 0 0 0 0 0 0 0 0 0 0 0 0 0 0 0 0 0 0 0 0 0
0 0 0 0 0 0 0 1 0 0 0 0 1 1 1 1 1 0 0 0 0 0 0 1 0 0 0 0 0 0 0 0 0 0 0 0 0 0 0 0 0 0 0
0 0 0 0 0 0 0 0 0 1 1 0 1 1 1 0 0 1 0 0 0 0 1 1 0 0 0 0 0 0 0 0 0 0 0 0 0 0 0 0 0 0 0
0 0 0 0 0 0 0 0 0 0 0 0 0 0 0 0 1 1 1 0 1 1 0 0 0 0 0 0 0 0 0 0 0 0 0 0 0 0 0 0 0 0 0
0 0 0 0 0 0 0 0 0 0 0 0 0 0 0 1 1 1 0 1 0 0 0 0 0 0 0 0 0 0 0 0 0 0 0 0 0 0 0 0 0 0 0
0 0 0 0 0 0 0 0 0 0 0 0 0 0 1 1 1 0 1 1 0 0 0 0 0 0 0 0 0 0 0 0 0 0 0 1 0 0 0 0 0 0 0
0 0 0 0 0 0 0 0 0 0 0 0 0 0 0 1 1 0 0 0 0 0 0 0 0 0 0 0 0 0 0 0 0 0 0 0 0 0 0 0 0 0 0
0 0 0 0 0 0 0 0 0 0 0 0 0 0 0 1 1 0 0 0 0 0 0 0 0 0 0 0 0 0 0 0 0 0 0 0 0 0 0 0 0 0 0
0 0 0 0 0 0 0 0 0 0 0 0 0 0 0 0 1 1 0 0 0 0 0 0 0 0 0 0 0 0 0 0 0 0 0 0 0 0 1 1 1 0 0
0 0 0 0 0 0 0 0 0 0 0 0 0 0 0 0 0 0 0 0 0 0 0 0 0 0 0 0 0 0 0 0 0 0 0 0 0 0 0 0 0 0 0
0 0 0 0 0 0 0 0 0 -0 0 0 0 0 0 0 0 0 0 0 0 0 0 0 0 0 0 0 0 0 0 0 0 0 0 0 0 0 0 0 0 0 0
0 0 0 0 0 0 0 0 0 -0 0 0 0 0 0 0 0 0 0 0 0 0 0 0 0 0 0 0 0 0 0 0 0 0 0 0 0 0 0 0 0 0 0
0 0 0 0 0 0 0 0 0 -0 0 0 0 0 0 0 0 0 0 0 0 0 0 0 0 0 0 0 0 0 0 0 0 0 0 0 0 0 0 0 0 0 0
0 0 0 0 0 0 0 0 0 0 0 0 0 0 0 0 0 0 0 0 0 0 0 0 0 0 0 0 0 0 0 0 0 0 0 0 0 0 0 0 0 0 0
0 0 0 0 0 0 0 0 0 0 0 0 0 0 0 0 0 0 0 0 0 0 0 0 0 0 0 0 0 -0 0 0 0 0 0 0 0 0 0 0 0 0 -0
0 0 0 0 0 0 0 0 0 0 0 0 0 0 0 0 0 0 0 0 0 0 0 0 0 0 0 0 -0 -0 -0 0 0 0 0 0 0 0 0 0 0 0 0
0 0 0 0 0 0 0 0 0 0 0 0 0 0 0 0 0 0 0 0 0 0 0 0 0 0 0 0 -0 -0 -0 -0 -0 0 0 0 0 0 -0 -0 0 0 0
0 0 0 0 0 0 0 0 0 0 0 0 0 0 0 0 0 0 0 0 0 0 0 0 0 0 0 0 -0 -0 0 -0 0 0 0 -0 -0 -0 0 0 0 0 0
0 0 0 0 0 0 0 0 0 0 0 0 0 0 0 0 0 0 0 0 0 0 0 0 0 0 0 0 0 -0 0 0 0 0 0 0 0 0 0 0 0 0 0
0 0 0 0 0 0 0 0 0 0 0 0 0 0 0 0 0 0 0 0 0 0 0 0 0 0 0 0 0 0 -0 -0 0 0 0 0 0 0 0 0 0 0 0
0 0 0 0 0 0 0 0 0 0 0 0 -0 0 0 0 0 0 0 0 0 0 0 0 0 0 0 0 0 -0 -0 -0 0 0 -0 -0 -0 -0 0 0 0 0 0
0 0 0 0 0 -0 0 0 0 0 0 0 0 0 0 0 0 0 0 0 0 0 0 0 0 0 0 0 0 0 0 -0 0 0 0 0 0 0 0 0 0 0 0
0 0 0 0 0 0 0 0 0 0 0 0 0 0 0 0 0 0 0 0 0 0 0 0 0 0 0 0 0 0 0 0 0 0 0 0 0 0 0 0 0 0 0
0 0 0 0 0 0 0 0 0 0 0 0 0 0 0 0 0 0 0 0 0 0 0 0 0 0 0 0 0 0 0 0 0 0 0 0 0 0 0 0 0 0 0
Wind_Speed_500mb
34 32 21 20 21 24 28 37 40 47 51 52 54 61 65 74 69 78 69 62 63 60 64 64 68 70 78 77 78 85 72 64 62 59 57 48 46 44 41 40 35 34 33
25 21 15 16 19 21 23 30 35 36 42 50 51 56 70 81 75 73 71 69 63 62 53 66 71 70 66 75 77 78 85 74 70 75 70 45 42 44 43 43 42 38 35
20 13 13 13 12 13 18 22 27 31 35 42 47 60 66 70 69 77 76 70 68 59 52 56 65 80 74 92 81 85 101 84 79 77 80 51 38 53 49 44 43 44 39
17 9 8 10 13 16 20 18 17 23 31 37 46 60 67 68 69 72 73 66 58 49 54 55 63 75 80 80 84 89 100 89 81 79 76 54 55 63 45 45 51 41 43
10 3 6 11 12 19 21 19 13 18 27 33 44 47 61 49 38 45 50 69 57 50 51 56 63 70 85 73 108 97 107 101 87 93 76 68 46 64 49 53 52 51 42
10 2 6 12 14 19 24 23 19 16 29 30 52 47 61 43 47 43 52 43 49 54 58 57 62 65 73 73 109 94 117 118 90 89 80 73 55 68 50 51 54 56 49
6 1 8 14 18 21 24 24 22 18 20 28 38 55 51 50 43 43 39 40 51 56 57 56 53 47 51 74 95 98 126 115 93 88 81 64 64 55 50 49 57 55 50
3 3 8 14 19 22 26 26 24 19 19 23 35 55 50 47 40 38 40 41 45 44 43 42 44 29 33 52 90 103 113 124 100 95 80 64 66 54 54 43 57 52 44
6 7 10 13 17 26 29 29 21 17 26 28 28 54 56 47 42 35 41 37 40 37 40 37 38 35 28 47 86 101 115 107 113 98 78 73 63 62 47 50 42 59 45
7 10 12 14 22 28 29 28 27 21 22 26 30 41 51 59 38 36 42 41 36 36 35 37 37 36 34 41 77 89 89 112 101 88 85 75 65 66 51 55 46 53 51
15 17 17 17 20 24 28 31 31 30 26 23 28 35 45 52 50 43 39 41 35 37 37 36 33 36 43 47 64 83 86 94 93 82 81 82 70 65 66 69 66 60 48
22 26 23 23 20 24 28 32 33 33 33 29 24 37 46 53 58 55 47 39 38 38 40 34 34 46 39 56 58 67 92 106 88 89 81 85 78 73 82 79 67 61 49
27 31 28 25 24 22 29 29 31 37 37 32 26 35 45 52 56 52 46 48 46 38 31 38 45 44 50 53 68 66 86 97 101 91 84 84 80 82 83 75 72 56 62
31 32 31 27 24 19 25 30 31 41 47 33 26 30 44 53 56 50 46 48 44 44 40 43 41 39 38 43 57 67 81 92 101 89 87 84 87 94 91 78 72 65 55
32 32 23 21 24 26 31 34 39 35 40 40 34 30 42 52 55 50 49 50 44 39 38 39 39 39 45 46 46 47 71 96 103 92 86 83 85 86 84 69 79 67 80
37 25 19 26 29 30 33 36 41 40 36 44 36 43 41 57 53 49 50 43 41 37 32 34 37 37 38 43 46 32 66 91 98 105 98 95 87 83 78 79 78 71 73
20 23 24 25 28 30 31 33 40 42 38 37 43 44 46 54 52 52 52 50 46 38 34 34 31 30 28 25 31 25 31 78 89 98 97 97 100 100 98 95 82 76 64
16 19 23 27 28 30 32 40 39 39 38 37 50 40 48 53 49 56 58 56 48 42 39 34 27 24 24 18 20 25 32 49 64 65 73 86 82 73 74 88 78 63 54
17 21 27 29 30 32 37 38 39 38 37 33 51 37 43 53 50 62 64 57 52 46 41 37 32 26 23 19 17 33 38 43 52 52 61 66 68 61 58 57 60 56 49
19 24 26 25 28 36 36 36 40 39 33 30 43 39 46 55 57 67 64 60 54 50 44 41 35 32 30 25 19 27 42 54 55 53 53 55 57 53 46 44 52 52 47
23 25 24 25 31 36 36 33 39 41 35 32 28 35 50 55 72 67 62 64 61 58 52 48 46 42 39 38 37 43 45 54 63 62 61 58 52 52 49 41 42 38 50
26 27 27 27 29 35 35 34 36 39 33 25 25 36 42 66 76 73 68 70 68 65 61 58 55 52 51 53 53 56 58 59 62 69 67 62 54 51 51 48 46 48 44
29 29 29 29 29 35 37 37 38 35 30 27 18 27 39 73 82 74 75 81 76 74 68 65 63 62 59 61 66 67 68 71 70 68 66 68 63 63 60 52 49 49 46
32 33 32 32 35 36 36 34 34 31 24 20 17 14 24 52 74 78 79 82 83 81 76 73 70 66 64 64 66 67 69 69 72 78 77 73 67 58 60 60 52 44 40
31 30 31 32 35 37 37 32 29 26 19 14 6 5 11 33 52 71 74 81 80 79 79 77 75 74 69 63 65 68 72 72 69 72 72 69 64 61 56 50 45 44 41
33 33 33 33 33 34 36 32 26 21 15 9 12 19 15 26 34 53 55 48 59 73 78 80 76 72 68 63 56 57 62 70 75 74 73 68 59 54 52 50 47 41 38
Wind_Direction_500mb
230 223 233 235 253 259 262 257 257 256 241 231 224 220 223 231 230 227 220 233 237 230 233 236 238 232 233 226 232 216 191 193 192 186 175 180 181 178 183 177 181 188 187
208 216 233 257 261 267 272 269 254 252 239 228 225 223 220 225 226 223 217 220 229 240 234 227 228 230 225 229 218 215 196 194 192 180 170 165 179 182 187 183 179 193 193
208 199 233 261 291 309 302 291 256 246 235 222 217 218 225 230 224 228 227 226 233 233 232 226 222 226 230 219 230 221 199 197 196 192 179 165 183 180 188 189 178 196 195
192 212 255 288 309 329 331 323 274 246 236 220 223 223 221 215 220 222 226 227 232 231 222 223 225 230 231 227 228 219 201 194 194 190 188 182 182 176 177 190 188 192 196
191 229 307 324 323 335 334 329 306 258 238 218 215 222 216 209 228 221 232 226 229 223 220 225 227 234 229 233 226 220 210 196 196 191 189 187 190 189 183 184 191 194 202
163 257 336 327 329 333 340 332 319 278 243 232 212 219 212 204 211 204 212 213 217 218 220 229 238 236 238 240 217 219 207 194 198 191 191 191 190 181 187 185 190 194 198
165 287 348 338 337 337 338 336 316 291 258 236 218 206 213 207 215 214 210 216 223 225 228 229 227 227 232 213 221 212 199 192 195 193 193 194 192 188 196 187 186 189 197
165 303 337 333 334 337 337 340 331 293 270 256 227 209 211 212 211 219 212 217 230 232 224 225 224 226 216 226 224 220 207 193 195 194 196 194 190 187 197 198 183 186 187
235 332 326 335 330 336 334 337 334 307 290 272 242 217 210 213 214 217 225 212 229 234 221 223 225 223 217 227 210 200 197 193 198 198 199 195 194 193 200 201 199 181 169
303 312 308 309 319 325 330 333 330 302 286 275 259 232 223 211 218 220 226 223 215 228 219 226 230 224 218 222 220 209 209 196 200 199 202 199 200 199 202 198 192 190 186
327 310 299 298 310 323 328 330 332 323 283 275 256 247 230 223 218 217 221 217 217 216 221 230 236 230 225 219 217 213 208 196 199 201 207 205 201 203 202 202 200 202 199
315 302 286 288 304 324 331 333 329 328 301 265 259 248 227 218 215 211 219 219 214 222 223 231 229 235 229 222 212 217 212 206 202 207 208 209 206 209 211 213 213 220 223
301 297 280 279 289 311 327 330 336 339 321 275 255 246 229 219 216 222 218 224 223 219 223 231 227 222 232 226 222 218 214 208 204 217 218 214 208 213 220 218 215 221 226
301 298 283 283 289 313 316 323 330 341 341 303 254 248 228 221 210 212 216 214 215 214 218 218 216 214 210 220 227 230 215 215 215 223 216 211 208 216 222 220 221 220 231
305 297 287 302 324 316 310 317 316 329 341 330 255 260 236 221 212 214 215 216 214 213 214 219 221 220 223 222 222 232 236 224 221 219 216 214 220 219 225 225 215 231 245
299 293 318 314 305 307 311 316 314 312 335 348 278 242 248 217 212 209 207 210 200 203 203 197 202 211 217 221 215 229 232 227 214 220 216 220 225 223 230 215 224 241 241
318 309 313 307 311 316 318 315 314 310 321 337 314 240 252 216 209 206 205 201 198 196 195 196 196 204 208 206 205 210 230 218 210 213 216 220 216 216 224 219 220 228 242
332 320 316 315 318 317 317 315 318 312 304 329 325 244 235 211 205 204 202 199 197 196 194 191 191 198 186 173 188 200 210 212 205 207 209 208 206 213 220 216 222 227 220
344 325 320 320 320 320 322 322 320 315 298 314 325 253 235 211 202 200 200 199 194 193 192 191 189 183 177 152 185 211 202 193 186 192 196 197 203 201 207 214 212 200 186
351 334 328 323 322 322 326 326 323 321 307 301 316 269 224 202 199 206 202 196 196 193 190 186 182 180 179 164 171 186 180 173 173 173 173 174 180 182 186 200 198 188 162
349 345 337 337 324 326 330 331 324 321 319 298 309 277 232 206 211 206 205 198 194 190 187 185 177 176 173 166 174 186 188 178 165 161 162 161 164 164 163 173 169 173 156
351 347 346 338 334 334 337 339 330 329 327 320 306 275 270 215 206 204 198 196 192 190 183 179 173 171 171 172 176 181 180 174 171 164 160 157 156 150 149 148 144 141 142
354 350 346 340 336 346 346 343 339 337 339 341 323 298 221 196 204 199 198 189 188 188 181 177 172 167 171 175 179 180 179 172 165 158 152 144 142 141 137 137 142 139 140
358 352 351 346 345 351 349 350 349 345 344 358 342 268 219 185 179 186 191 190 184 182 181 177 173 170 169 173 178 178 175 170 162 155 149 143 141 143 143 142 140 134 130
358 355 352 349 353 349 352 356 359 358 358 17 26 340 197 198 168 170 175 180 180 186 185 180 177 174 167 166 170 172 169 163 153 147 145 146 145 140 137 130 127 131 132
359 358 358 356 355 357 357 8 11 14 17 71 118 132 149 167 178 156 156 163 174 181 180 179 178 170 166 160 160 156 152 149 148 146 142 140 140 137 132 134 135 138 135
Wind_Speed_850mb
34 32 21 20 21 24 28 37 40 47 51 52 54 61 65 74 69 78 69 62 63 60 64 64 68 70 78 77 78 85 72 64 62 59 57 48 46 44 41 40 35 34 33
25 21 15 16 19 21 23 30 35 36 42 50 51 56 70 81 75 73 71 69 63 62 53 66 71 70 66 75 77 78 85 74 70 75 70 45 42 44 43 43 42 38 35
20 13 13 13 12 13 18 22 27 31 35 42 47 60 66 70 69 77 76 70 68 59 52 56 65 80 74 92 81 85 101 84 79 77 80 51 38 53 49 44 43 44 39
17 9 8 10 13 16 20 18 17 23 31 37 46 60 67 68 69 72 73 66 58 49 54 55 63 75 80 80 84 89 100 89 81 79 76 54 55 63 45 45 51 41 43
10 3 6 11 12 19 21 19 13 18 27 33 44 47 61 49 38 45 50 69 57 50 51 56 63 70 85 73 108 97 107 101 87 93 76 68 46 64 49 53 52 51 42
10 2 6 12 14 19 24 23 19 16 29 30 52 47 61 43 47 43 52 43 49 54 58 57 62 65 73 73 109 94 117 118 90 89 80 73 55 68 50 51 54 56 49
6 1 8 14 18 21 24 24 22 18 20 28 38 55 51 50 43 43 39 40 51 56 57 56 53 47 51 74 95 98 126 115 93 88 81 64 64 55 50 49 57 55 50
3 3 8 14 19 22 26 26 24 19 19 23 35 55 50 47 40 38 40 41 45 44 43 42 44 29 33 52 90 103 113 124 100 95 80 64 66 54 54 43 57 52 44
6 7 10 13 17 26 29 29 21 17 26 28 28 54 56 47 42 35 41 37 40 37 40 37 38 35 28 47 86 101 115 107 113 98 78 73 63 62 47 50 42 59 45
7 10 12 14 22 28 29 28 27 21 22 26 30 41 51 59 38 36 42 41 36 36 35 37 37 36 34 41 77 89 89 112 101 88 85 75 65 66 51 55 46 53 51
15 17 17 17 20 24 28 31 31 30 26 23 28 35 45 52 50 43 39 41 35 37 37 36 33 36 43 47 64 83 86 94 93 82 81 82 70 65 66 69 66 60 48
22 26 23 23 20 24 28 32 33 33 33 29 24 37 46 53 58 55 47 39 38 38 40 34 34 46 39 56 58 67 92 106 88 89 81 85 78 73 82 79 67 61 49
27 31 28 25 24 22 29 29 31 37 37 32 26 35 45 52 56 52 46 48 46 38 31 38 45 44 50 53 68 66 86 97 101 91 84 84 80 82 83 75 72 56 62
31 32 31 27 24 19 25 30 31 41 47 33 26 30 44 53 56 50 46 48 44 44 40 43 41 39 38 43 57 67 81 92 101 89 87 84 87 94 91 78 72 65 55
32 32 23 21 24 26 31 34 39 35 40 40 34 30 42 52 55 50 49 50 44 39 38 39 39 39 45 46 46 47 71 96 103 92 86 83 85 86 84 69 79 67 80
37 25 19 26 29 30 33 36 41 40 36 44 36 43 41 57 53 49 50 43 41 37 32 34 37 37 38 43 46 32 66 91 98 105 98 95 87 83 78 79 78 71 73
20 23 24 25 28 30 31 33 40 42 38 37 43 44 46 54 52 52 52 50 46 38 34 34 31 30 28 25 31 25 31 78 89 98 97 97 100 100 98 95 82 76 64
16 19 23 27 28 30 32 40 39 39 38 37 50 40 48 53 49 56 58 56 48 42 39 34 27 24 24 18 20 25 32 49 64 65 73 86 82 73 74 88 78 63 54
17 21 27 29 30 32 37 38 39 38 37 33 51 37 43 53 50 62 64 57 52 46 41 37 32 26 23 19 17 33 38 43 52 52 61 66 68 61 58 57 60 56 49
19 24 26 25 28 36 36 36 40 39 33 30 43 39 46 55 57 67 64 60 54 50 44 41 35 32 30 25 19 27 42 54 55 53 53 55 57 53 46 44 52 52 47
23 25 24 25 31 36 36 33 39 41 35 32 28 35 50 55 72 67 62 64 61 58 52 48 46 42 39 38 37 43 45 54 63 62 61 58 52 52 49 41 42 38 50
26 27 27 27 29 35 35 34 36 39 33 25 25 36 42 66 76 73 68 70 68 65 61 58 55 52 51 53 53 56 58 59 62 69 67 62 54 51 51 48 46 48 44
29 29 29 29 29 35 37 37 38 35 30 27 18 27 39 73 82 74 75 81 76 74 68 65 63 62 59 61 66 67 68 71 70 68 66 68 63 63 60 52 49 49 46
32 33 32 32 35 36 36 34 34 31 24 20 17 14 24 52 74 78 79 82 83 81 76 73 70 66 64 64 66 67 69 69 72 78 77 73 67 58 60 60 52 44 40
31 30 31 32 35 37 37 32 29 26 19 14 6 5 11 33 52 71 74 81 80 79 79 77 75 74 69 63 65 68 72 72 69 72 72 69 64 61 56 50 45 44 41
33 33 33 33 33 34 36 32 26 21 15 9 12 19 15 26 34 53 55 48 59 73 78 80 76 72 68 63 56 57 62 70 75 74 73 68 59 54 52 50 47 41 38
Wind_Direction_850mb
230 223 233 235 253 259 262 257 257 256 241 231 224 220 223 231 230 227 220 233 237 230 233 236 238 232 233 226 232 216 191 193 192 186 175 180 181 178 183 177 181 188 187
208 216 233 257 261 267 272 269 254 252 239 228 225 223 220 225 226 223 217 220 229 240 234 227 228 230 225 229 218 215 196 194 192 180 170 165 179 182 187 183 179 193 193
208 199 233 261 291 309 302 291 256 246 235 222 217 218 225 230 224 228 227 226 233 233 232 226 222 226 230 219 230 221 199 197 196 192 179 165 183 180 188 189 178 196 195
192 212 255 288 309 329 331 323 274 246 236 220 223 223 221 215 220 222 226 227 232 231 222 223 225 230 231 227 228 219 201 194 194 190 188 182 182 176 177 190 188 192 196
191 229 307 324 323 335 334 329 306 258 238 218 215 222 216 209 228 221 232 226 229 223 220 225 227 234 229 233 226 220 210 196 196 191 189 187 190 189 183 184 191 194 202
163 257 336 327 329 333 340 332 319 278 243 232 212 219 212 204 211 204 212 213 217 218 220 229 238 236 238 240 217 219 207 194 198 191 191 191 190 181 187 185 190 194 198
165 287 348 338 337 337 338 336 316 291 258 236 218 206 213 207 215 214 210 216 223 225 228 229 227 227 232 213 221 212 199 192 195 193 193 194 192 188 196 187 186 189 197
165 303 337 333 334 337 337 340 331 293 270 256 227 209 211 212 211 219 212 217 230 232 224 225 224 226 216 226 224 220 207 193 195 194 196 194 190 187 197 198 183 186 187
235 332 326 335 330 336 334 337 334 307 290 272 242 217 210 213 214 217 225 212 229 234 221 223 225 223 217 227 210 200 197 193 198 198 199 195 194 193 200 201 199 181 169
303 312 308 309 319 325 330 333 330 302 286 275 259 232 223 211 218 220 226 223 215 228 219 226 230 224 218 222 220 209 209 196 200 199 202 199 200 199 202 198 192 190 186
327 310 299 298 310 323 328 330 332 323 283 275 256 247 230 223 218 217 221 217 217 216 221 230 236 230 225 219 217 213 208 196 199 201 207 205 201 203 202 202 200 202 199
315 302 286 288 304 324 331 333 329 328 301 265 259 248 227 218 215 211 219 219 214 222 223 231 229 235 229 222 212 217 212 206 202 207 208 209 206 209 211 213 213 220 223
301 297 280 279 289 311 327 330 336 339 321 275 255 246 229 219 216 222 218 224 223 219 223 231 227 222 232 226 222 218 214 208 204 217 218 214 208 213 220 218 215 221 226
301 298 283 283 289 313 316 323 330 341 341 303 254 248 228 221 210 212 216 214 215 214 218 218 216 214 210 220 227 230 215 215 215 223 216 211 208 216 222 220 221 220 231
305 297 287 302 324 316 310 317 316 329 341 330 255 260 236 221 212 214 215 216 214 213 214 219 221 220 223 222 222 232 236 224 221 219 216 214 220 219 225 225 215 231 245
299 293 318 314 305 307 311 316 314 312 335 348 278 242 248 217 212 209 207 210 200 203 203 197 202 211 217 221 215 229 232 227 214 220 216 220 225 223 230 215 224 241 241
318 309 313 307 311 316 318 315 314 310 321 337 314 240 252 216 209 206 205 201 198 196 195 196 196 204 208 206 205 210 230 218 210 213 216 220 216 216 224 219 220 228 242
332 320 316 315 318 317 317 315 318 312 304 329 325 244 235 211 205 204 202 199 197 196 194 191 191 198 186 173 188 200 210 212 205 207 209 208 206 213 220 216 222 227 220
344 325 320 320 320 320 322 322 320 315 298 314 325 253 235 211 202 200 200 199 194 193 192 191 189 183 177 152 185 211 202 193 186 192 196 197 203 201 207 214 212 200 186
351 334 328 323 322 322 326 326 323 321 307 301 316 269 224 202 199 206 202 196 196 193 190 186 182 180 179 164 171 186 180 173 173 173 173 174 180 182 186 200 198 188 162
349 345 337 337 324 326 330 331 324 321 319 298 309 277 232 206 211 206 205 198 194 190 187 185 177 176 173 166 174 186 188 178 165 161 162 161 164 164 163 173 169 173 156
351 347 346 338 334 334 337 339 330 329 327 320 306 275 270 215 206 204 198 196 192 190 183 179 173 171 171 172 176 181 180 174 171 164 160 157 156 150 149 148 144 141 142
354 350 346 340 336 346 346 343 339 337 339 341 323 298 221 196 204 199 198 189 188 188 181 177 172 167 171 175 179 180 179 172 165 158 152 144 142 141 137 137 142 139 140
358 352 351 346 345 351 349 350 349 345 344 358 342 268 219 185 179 186 191 190 184 182 181 177 173 170 169 173 178 178 175 170 162 155 149 143 141 143 143 142 140 134 130
358 355 352 349 353 349 352 356 359 358 358 17 26 340 197 198 168 170 175 180 180 186 185 180 177 174 167 166 170 172 169 163 153 147 145 146 145 140 137 130 127 131 132
359 358 358 356 355 357 357 8 11 14 17 71 118 132 149 167 178 156 156 163 174 181 180 179 178 170 166 160 160 156 152 149 148 146 142 140 140 137 132 134 135 138 135